Tracking 23885 objects as of 28-Nov-2021
HD Live streaming from Space Station
objects crossing your sky now

ONEWEB-0372

Track ONEWEB-0372 now!
10-day predictions
ONEWEB-0372 is classified as:


NORAD ID: 49298
Int'l Code: 2021-090V
Perigee: 592.6 km
Apogee: 611.9 km
Inclination: 87.2 °
Period: 96.6 minutes
Semi major axis: 6973 km
RCS: Unknown
Launch date: October 14, 2021
Source: United Kingdom (UK)
Launch site: VOSTOCHNY COSMODROME (VOSTO)
aabbcc
Your satellite tracking list
Your tracking list is empty




NASA's NSSDC Master Catalog

Two Line Element Set (TLE):
1 49298U 21090V   21332.25002315  .00055695  00000-0  55989-2 0  9991
2 49298  87.2016 277.7039 0013870 104.8512 259.5492 14.90905473  8098
Source of the keplerian elements: AFSPC